| time (UTC) | temp F | wind direction | speed knots | gust knots | rain 1hr in | rain 24hr in | rain mn in | humidity % | barometer mb |
| 20260504235743 | 64 | 217 | 0.0 | 0.9 | 0.00 | 0.00 | 0.00 | 44 | 1005.2 |
| 20260504235239 | 64 | 211 | 0.0 | 0.0 | 0.00 | 0.00 | 0.00 | 43 | 1005.3 |
| 20260504234736 | 65 | 220 | 0.0 | 0.0 | 0.00 | 0.00 | 0.00 | 43 | 1005.1 |
| 20260504234234 | 65 | 206 | 0.0 | 0.0 | 0.00 | 0.00 | 0.00 | 41 | 1004.8 |
| 20260504233730 | 66 | 219 | 0.0 | 0.0 | 0.00 | 0.00 | 0.00 | 41 | 1004.8 |
| 20260504233226 | 66 | 171 | 1.7 | 4.3 | 0.00 | 0.00 | 0.00 | 40 | 1004.8 |
| 20260504232723 | 66 | 191 | 0.9 | 4.3 | 0.00 | 0.00 | 0.00 | 40 | 1004.8 |
| 20260504232220 | 66 | 239 | 0.9 | 5.2 | 0.00 | 0.00 | 0.00 | 41 | 1004.5 |
| 20260504231716 | 67 | 238 | 1.7 | 5.2 | 0.00 | 0.00 | 0.00 | 40 | 1004.6 |
| 20260504231213 | 67 | 186 | 0.9 | 5.2 | 0.00 | 0.00 | 0.00 | 40 | 1004.4 |
| 20260504230709 | 67 | 133 | 1.7 | 4.3 | 0.00 | 0.00 | 0.00 | 39 | 1004.6 |
| 20260504230208 | 68 | 258 | 0.9 | 1.7 | 0.00 | 0.00 | 0.00 | 40 | 1004.4 |
| 20260504225706 | 67 | 256 | 1.7 | 8.7 | 0.00 | 0.00 | 0.00 | 40 | 1004.2 |
| 20260504225202 | 67 | 183 | 4.3 | 5.2 | 0.00 | 0.00 | 0.00 | 40 | 1004.1 |
| 20260504224700 | 68 | 221 | 3.5 | 6.1 | 0.00 | 0.00 | 0.00 | 39 | 1004.2 |
| 20260504224156 | 68 | 242 | 1.7 | 7.0 | 0.00 | 0.00 | 0.00 | 38 | 1004.2 |
| 20260504223653 | 68 | 245 | 2.6 | 2.6 | 0.00 | 0.00 | 0.00 | 38 | 1004.0 |
| 20260504223148 | 68 | 257 | 4.3 | 6.1 | 0.00 | 0.00 | 0.00 | 39 | 1003.9 |
| 20260504222646 | 68 | 247 | 1.7 | 2.6 | 0.00 | 0.00 | 0.00 | 39 | 1004.2 |
| 20260504222142 | 69 | 251 | 0.0 | 5.2 | 0.00 | 0.00 | 0.00 | 39 | 1004.0 |
| 20260504221640 | 69 | 259 | 1.7 | 4.3 | 0.00 | 0.00 | 0.00 | 38 | 1004.2 |
| 20260504221137 | 69 | 227 | 0.9 | 5.2 | 0.00 | 0.00 | 0.00 | 38 | 1004.1 |
| 20260504220633 | 70 | 261 | 2.6 | 2.6 | 0.00 | 0.00 | 0.00 | 38 | 1004.1 |
| 20260504220131 | 70 | 257 | 5.2 | 8.7 | 0.00 | 0.00 | 0.00 | 37 | 1004.2 |
| 20260504215627 | 69 | 248 | 1.7 | 7.0 | 0.00 | 0.00 | 0.00 | 37 | 1004.0 |
| 20260504215125 | 69 | 163 | 2.6 | 8.7 | 0.00 | 0.00 | 0.00 | 37 | 1004.2 |
| 20260504214620 | 69 | 239 | 1.7 | 12.2 | 0.00 | 0.00 | 0.00 | 38 | 1004.2 |
| 20260504214117 | 69 | 267 | 5.2 | 8.7 | 0.00 | 0.00 | 0.00 | 37 | 1004.3 |
| 20260504213613 | 69 | 233 | 2.6 | 6.1 | 0.00 | 0.00 | 0.00 | 38 | 1004.1 |
| 20260504213110 | 69 | 216 | 5.2 | 7.0 | 0.00 | 0.00 | 0.00 | 38 | 1004.1 |
| 20260504212606 | 69 | 251 | 1.7 | 5.2 | 0.00 | 0.00 | 0.00 | 39 | 1004.0 |
| 20260504212104 | 69 | 267 | 3.5 | 5.2 | 0.00 | 0.00 | 0.00 | 39 | 1004.0 |
| 20260504211601 | 68 | 125 | 2.6 | 8.7 | 0.00 | 0.00 | 0.00 | 39 | 1004.2 |
| 20260504211057 | 68 | 285 | 5.2 | 6.1 | 0.00 | 0.00 | 0.00 | 39 | 1004.0 |
| 20260504210555 | 68 | 228 | 1.7 | 7.0 | 0.00 | 0.00 | 0.00 | 41 | 1003.9 |
| 20260504210051 | 70 | 253 | 1.7 | 7.0 | 0.00 | 0.00 | 0.00 | 38 | 1004.0 |
| 20260504205549 | 70 | 239 | 3.5 | 7.0 | 0.00 | 0.00 | 0.00 | 37 | 1004.1 |
| 20260504205047 | 69 | 272 | 5.2 | 8.7 | 0.00 | 0.00 | 0.00 | 39 | 1004.0 |
| 20260504204544 | 69 | 232 | 2.6 | 7.0 | 0.00 | 0.00 | 0.00 | 37 | 1004.1 |
| 20260504204043 | 69 | 238 | 4.3 | 6.1 | 0.00 | 0.00 | 0.00 | 38 | 1003.8 |
| 20260504203541 | 69 | 246 | 4.3 | 7.8 | 0.00 | 0.00 | 0.00 | 38 | 1003.9 |
| 20260504203038 | 70 | 257 | 4.3 | 6.1 | 0.00 | 0.00 | 0.00 | 37 | 1003.6 |
| 20260504202534 | 70 | 178 | 7.0 | 12.2 | 0.00 | 0.00 | 0.00 | 36 | 1003.9 |
| 20260504202031 | 69 | 268 | 4.3 | 8.7 | 0.00 | 0.00 | 0.00 | 38 | 1003.7 |
| 20260504201528 | 67 | 225 | 3.5 | 6.1 | 0.00 | 0.00 | 0.00 | 40 | 1003.8 |
| 20260504201026 | 69 | 245 | 6.1 | 8.7 | 0.00 | 0.00 | 0.00 | 39 | 1003.9 |
| 20260504200521 | 69 | 206 | 3.5 | 6.1 | 0.00 | 0.00 | 0.00 | 39 | 1004.0 |
| 20260504200019 | 69 | 273 | 7.8 | 11.3 | 0.00 | 0.00 | 0.00 | 38 | 1004.1 |
| 20260504195515 | 70 | 326 | 9.6 | 13.9 | 0.00 | 0.00 | 0.00 | 39 | 1003.9 |
| 20260504195011 | 70 | 266 | 4.3 | 7.0 | 0.00 | 0.00 | 0.00 | 37 | 1004.1 |
| 20260504194508 | 69 | 247 | 1.7 | 11.3 | 0.00 | 0.00 | 0.00 | 38 | 1004.0 |
| 20260504194003 | 68 | 203 | 7.8 | 12.2 | 0.00 | 0.00 | 0.00 | 40 | 1004.2 |
| 20260504193501 | 68 | 287 | 4.3 | 12.2 | 0.00 | 0.00 | 0.00 | 40 | 1003.9 |
| 20260504192959 | 69 | 262 | 1.7 | 9.6 | 0.00 | 0.00 | 0.00 | 40 | 1004.1 |
| 20260504192456 | 70 | 275 | 6.1 | 8.7 | 0.00 | 0.00 | 0.00 | 39 | 1004.3 |
| 20260504191955 | 69 | 267 | 3.5 | 5.2 | 0.00 | 0.00 | 0.00 | 38 | 1004.4 |
| 20260504191453 | 69 | 227 | 7.0 | 9.6 | 0.00 | 0.00 | 0.00 | 39 | 1004.2 |
| 20260504190947 | 68 | 289 | 4.3 | 13.0 | 0.00 | 0.00 | 0.00 | 40 | 1004.3 |
| 20260504190444 | 69 | 220 | 4.3 | 6.1 | 0.00 | 0.00 | 0.00 | 38 | 1004.2 |
| 20260504185941 | 69 | 281 | 5.2 | 6.1 | 0.00 | 0.00 | 0.00 | 37 | 1004.4 |
| 20260504185438 | 68 | 273 | 3.5 | 8.7 | 0.00 | 0.00 | 0.00 | 41 | 1004.4 |
| 20260504184934 | 66 | 244 | 2.6 | 7.0 | 0.00 | 0.00 | 0.00 | 41 | 1004.6 |
| 20260504184429 | 65 | 245 | 7.0 | 11.3 | 0.00 | 0.00 | 0.00 | 41 | 1004.6 |
| 20260504183926 | 65 | 198 | 5.2 | 7.0 | 0.00 | 0.00 | 0.00 | 41 | 1004.4 |
| 20260504183423 | 65 | 264 | 4.3 | 7.0 | 0.00 | 0.00 | 0.00 | 41 | 1004.5 |
| 20260504182921 | 65 | 211 | 2.6 | 7.0 | 0.00 | 0.00 | 0.00 | 41 | 1004.4 |
| 20260504182418 | 66 | 192 | 7.0 | 13.0 | 0.00 | 0.00 | 0.00 | 40 | 1004.4 |
| 20260504181914 | 67 | 191 | 2.6 | 13.0 | 0.00 | 0.00 | 0.00 | 41 | 1004.2 |
| 20260504181412 | 66 | 277 | 3.5 | 7.8 | 0.00 | 0.00 | 0.00 | 41 | 1004.3 |
| 20260504180911 | 66 | 200 | 6.1 | 12.2 | 0.00 | 0.00 | 0.00 | 39 | 1004.4 |
| 20260504180409 | 66 | 272 | 7.8 | 14.8 | 0.00 | 0.00 | 0.00 | 40 | 1004.4 |
| 20260504175907 | 66 | 229 | 6.1 | 14.8 | 0.00 | 0.00 | 0.00 | 38 | 1004.3 |
| 20260504175403 | 68 | 229 | 3.5 | 20.9 | 0.00 | 0.00 | 0.00 | 38 | 1004.2 |
| 20260504174901 | 68 | 254 | 4.3 | 13.0 | 0.00 | 0.00 | 0.00 | 38 | 1004.1 |
| 20260504174358 | 68 | 225 | 3.5 | 11.3 | 0.00 | 0.00 | 0.00 | 38 | 1004.2 |
| 20260504173855 | 67 | 103 | 6.1 | 9.6 | 0.00 | 0.00 | 0.00 | 38 | 1004.3 |
| 20260504173352 | 66 | 182 | 10.4 | 15.6 | 0.00 | 0.00 | 0.00 | 39 | 1004.5 |
| 20260504172849 | 66 | 140 | 5.2 | 8.7 | 0.00 | 0.00 | 0.00 | 41 | 1004.5 |
| 20260504172346 | 65 | 155 | 4.3 | 8.7 | 0.00 | 0.00 | 0.00 | 40 | 1004.4 |
| 20260504171841 | 65 | 231 | 3.5 | 9.6 | 0.00 | 0.00 | 0.00 | 41 | 1004.7 |
| 20260504171339 | 65 | 307 | 4.3 | 7.8 | 0.00 | 0.00 | 0.00 | 40 | 1004.6 |
| 20260504170836 | 65 | 259 | 4.3 | 11.3 | 0.00 | 0.00 | 0.00 | 40 | 1004.5 |
| 20260504170332 | 66 | 144 | 6.1 | 11.3 | 0.00 | 0.00 | 0.00 | 39 | 1004.5 |
| 20260504160251 | 65 | 178 | 8.7 | 12.2 | 0.00 | 0.00 | 0.00 | 41 | 1005.2 |
| 20260504150716 | 62 | 164 | 2.6 | 6.1 | 0.00 | 0.00 | 0.00 | 47 | 1005.4 |
| 20260504150213 | 61 | 254 | 2.6 | 6.1 | 0.00 | 0.00 | 0.00 | 47 | 1005.4 |
| 20260504141143 | 59 | 240 | 3.5 | 8.7 | 0.00 | 0.00 | 0.00 | 50 | 1006.3 |
| 20260504140639 | 59 | 165 | 2.6 | 8.7 | 0.00 | 0.00 | 0.00 | 52 | 1006.0 |
| 20260504140135 | 58 | 176 | 7.8 | 11.3 | 0.00 | 0.00 | 0.00 | 53 | 1006.3 |
| 20260504130603 | 52 | 201 | 3.5 | 4.3 | 0.00 | 0.00 | 0.00 | 63 | 1007.0 |
| 20260504110451 | 44 | 170 | 3.5 | 6.1 | 0.00 | 0.00 | 0.00 | 73 | 1007.6 |
| 20260504100407 | 42 | 171 | 1.7 | 4.3 | 0.00 | 0.00 | 0.00 | 72 | 1007.7 |
| 20260504081800 | 41 | 264 | 1.7 | 2.6 | 0.00 | 0.00 | 0.00 | 67 | 1007.3 |
| 20260504081257 | 41 | 266 | 1.7 | 2.6 | 0.00 | 0.00 | 0.00 | 67 | 1007.5 |
| 20260504080753 | 41 | 249 | 2.6 | 2.6 | 0.00 | 0.00 | 0.00 | 68 | 1007.4 |
| 20260504080250 | 41 | 248 | 2.6 | 2.6 | 0.00 | 0.00 | 0.00 | 67 | 1007.4 |
| 20260504070217 | 39 | 269 | 1.7 | 1.7 | 0.00 | 0.00 | 0.00 | 68 | 1007.3 |
| 20260504060138 | 40 | 243 | 1.7 | 2.6 | 0.00 | 0.00 | 0.00 | 65 | 1007.7 |
| 20260504050606 | 41 | 264 | 1.7 | 2.6 | 0.00 | 0.00 | 0.00 | 64 | 1007.4 |
| 20260504050103 | 40 | 271 | 1.7 | 1.7 | 0.00 | 0.00 | 0.00 | 66 | 1007.7 |
| 20260504045600 | 40 | 263 | 0.0 | 1.7 | 0.00 | 0.00 | 0.00 | 67 | 1007.5 |
| 20260504045055 | 40 | 255 | 0.9 | 1.7 | 0.00 | 0.00 | 0.00 | 67 | 1007.5 |
| 20260504044553 | 40 | 278 | 1.7 | 1.7 | 0.00 | 0.00 | 0.00 | 66 | 1007.6 |
| 20260504044049 | 41 | 252 | 0.9 | 1.7 | 0.00 | 0.00 | 0.00 | 65 | 1007.5 |
| 20260504043547 | 41 | 250 | 0.9 | 1.7 | 0.00 | 0.00 | 0.00 | 64 | 1007.6 |
| 20260504043044 | 41 | 250 | 1.7 | 1.7 | 0.00 | 0.00 | 0.00 | 64 | 1007.5 |
| 20260504042541 | 41 | 247 | 0.0 | 0.0 | 0.00 | 0.00 | 0.00 | 64 | 1007.4 |
| 20260504042038 | 41 | 250 | 1.7 | 1.7 | 0.00 | 0.00 | 0.00 | 64 | 1007.3 |
| 20260504041533 | 42 | 249 | 0.0 | 1.7 | 0.00 | 0.00 | 0.00 | 63 | 1007.4 |
| 20260504041030 | 41 | 247 | 1.7 | 1.7 | 0.00 | 0.00 | 0.00 | 63 | 1007.2 |
| 20260504040527 | 42 | 256 | 1.7 | 2.6 | 0.00 | 0.00 | 0.00 | 63 | 1007.3 |
| 20260504040024 | 42 | 247 | 1.7 | 1.7 | 0.00 | 0.01 | 0.01 | 63 | 1007.0 |
| 20260504035521 | 42 | 261 | 1.7 | 1.7 | 0.00 | 0.01 | 0.01 | 63 | 1007.2 |
| 20260504035017 | 41 | 252 | 1.7 | 2.6 | 0.00 | 0.01 | 0.01 | 64 | 1007.2 |
| 20260504034515 | 41 | 247 | 1.7 | 1.7 | 0.00 | 0.01 | 0.01 | 64 | 1007.2 |
| 20260504034012 | 41 | 247 | 0.9 | 0.9 | 0.00 | 0.01 | 0.01 | 64 | 1007.1 |
| 20260504033510 | 41 | 247 | 0.0 | 0.9 | 0.00 | 0.01 | 0.01 | 64 | 1006.9 |
| 20260504033007 | 41 | 248 | 0.0 | 0.9 | 0.00 | 0.01 | 0.01 | 64 | 1007.0 |
| 20260504032504 | 41 | 251 | 0.9 | 1.7 | 0.00 | 0.01 | 0.01 | 64 | 1007.1 |
| 20260504032000 | 41 | 244 | 0.0 | 0.9 | 0.00 | 0.01 | 0.01 | 64 | 1006.9 |
| 20260504031457 | 41 | 263 | 0.0 | 0.9 | 0.00 | 0.01 | 0.01 | 65 | 1007.0 |
| 20260504030954 | 41 | 252 | 0.9 | 1.7 | 0.00 | 0.01 | 0.01 | 65 | 1006.9 |
| 20260504030451 | 39 | 248 | 0.0 | 0.0 | 0.00 | 0.01 | 0.01 | 68 | 1006.8 |
| 20260504025946 | 39 | 243 | 0.0 | 0.0 | 0.00 | 0.01 | 0.01 | 69 | 1006.9 |
| 20260504025444 | 41 | 249 | 0.0 | 0.9 | 0.00 | 0.01 | 0.01 | 67 | 1006.8 |
| 20260504024941 | 41 | 247 | 1.7 | 1.7 | 0.00 | 0.01 | 0.01 | 65 | 1006.8 |
| 20260504024438 | 42 | 267 | 2.6 | 2.6 | 0.00 | 0.01 | 0.01 | 61 | 1006.7 |
| 20260504023935 | 41 | 320 | 4.3 | 5.2 | 0.00 | 0.01 | 0.01 | 64 | 1006.7 |
| 20260504023431 | 41 | 241 | 2.6 | 2.6 | 0.00 | 0.01 | 0.01 | 67 | 1006.7 |
| 20260504022927 | 42 | 262 | 1.7 | 2.6 | 0.00 | 0.01 | 0.01 | 64 | 1006.8 |
| 20260504022423 | 42 | 278 | 2.6 | 4.3 | 0.00 | 0.01 | 0.01 | 61 | 1006.6 |
| 20260504021920 | 43 | 257 | 1.7 | 2.6 | 0.00 | 0.01 | 0.01 | 61 | 1006.8 |
| 20260504021417 | 43 | 257 | 0.9 | 1.7 | 0.00 | 0.01 | 0.01 | 61 | 1006.8 |
| 20260504020915 | 42 | 264 | 0.0 | 0.9 | 0.00 | 0.01 | 0.01 | 63 | 1006.6 |
| 20260504020411 | 42 | 252 | 0.9 | 1.7 | 0.00 | 0.01 | 0.01 | 63 | 1006.8 |
| 20260504015908 | 42 | 240 | 0.9 | 1.7 | 0.00 | 0.01 | 0.01 | 63 | 1006.8 |
| 20260504015404 | 42 | 255 | 0.9 | 1.7 | 0.00 | 0.01 | 0.01 | 62 | 1006.7 |
| 20260504014900 | 42 | 301 | 1.7 | 2.6 | 0.00 | 0.01 | 0.01 | 62 | 1006.9 |
| 20260504014356 | 42 | 261 | 0.9 | 1.7 | 0.00 | 0.01 | 0.01 | 62 | 1006.9 |
| 20260504013853 | 43 | 244 | 0.0 | 0.0 | 0.00 | 0.01 | 0.01 | 61 | 1006.9 |
| 20260504013351 | 43 | 259 | 0.0 | 0.0 | 0.00 | 0.01 | 0.01 | 62 | 1006.9 |
| 20260504012848 | 43 | 248 | 0.0 | 0.0 | 0.00 | 0.01 | 0.01 | 62 | 1006.8 |
| 20260504012345 | 43 | 256 | 0.0 | 0.9 | 0.00 | 0.01 | 0.01 | 62 | 1006.9 |
| 20260504011843 | 43 | 239 | 0.0 | 0.9 | 0.00 | 0.01 | 0.01 | 63 | 1006.6 |
| 20260504011339 | 42 | 245 | 0.0 | 0.0 | 0.00 | 0.01 | 0.01 | 64 | 1006.6 |
| 20260504010835 | 42 | 246 | 0.0 | 0.0 | 0.00 | 0.01 | 0.01 | 64 | 1006.6 |
| 20260504010331 | 43 | 252 | 0.0 | 0.0 | 0.00 | 0.01 | 0.01 | 64 | 1006.5 |
| 20260504005828 | 43 | 263 | 0.0 | 0.0 | 0.00 | 0.01 | 0.01 | 63 | 1006.6 |
| 20260504005325 | 43 | 261 | 0.0 | 0.0 | 0.00 | 0.01 | 0.01 | 63 | 1006.5 |
| 20260504004822 | 43 | 250 | 0.0 | 0.0 | 0.00 | 0.01 | 0.01 | 63 | 1006.5 |
| 20260504004320 | 43 | 260 | 0.9 | 1.7 | 0.00 | 0.01 | 0.01 | 62 | 1006.3 |
| 20260504003816 | 44 | 272 | 1.7 | 2.6 | 0.00 | 0.01 | 0.01 | 62 | 1006.2 |
| 20260504003313 | 44 | 272 | 2.6 | 2.6 | 0.00 | 0.01 | 0.01 | 61 | 1006.0 |
| 20260504002809 | 44 | 284 | 1.7 | 4.3 | 0.00 | 0.01 | 0.01 | 61 | 1006.1 |
| 20260504002306 | 44 | 267 | 2.6 | 4.3 | 0.00 | 0.01 | 0.01 | 61 | 1005.9 |
| 20260504001804 | 44 | 247 | 3.5 | 4.3 | 0.00 | 0.01 | 0.01 | 60 | 1006.0 |
| 20260504001301 | 45 | 326 | 3.5 | 5.2 | 0.00 | 0.01 | 0.01 | 59 | 1005.8 |
| 20260504000758 | 45 | 278 | 1.7 | 4.3 | 0.00 | 0.01 | 0.01 | 59 | 1005.8 |
| 20260504000255 | 46 | 335 | 3.5 | 7.8 | 0.00 | 0.01 | 0.01 | 58 | 1005.6 |